www.pogodaiklimat.ru

Погода и климат >> Архив погоды >> Россия >> Чукотка >> Билибино


ПОГОДА в Билибино

  • Прогноз погоды в Билибино
  • Монитор погоды в Билибино

АРХИВ ПОГОДЫ в Билибино

Время (UTC), дата Ветер
(напр.,м/с)
 
Видим.   Явления Облачность Т
(С)
Тd
(С)
f
(%)
Тe
(С)
Тes
(С)
Комфортность P
(гПа)
Po
(гПа)
Тmin
(С)
Tmax
(С)
R
(мм)
R24
(мм)
S
(см)
00 16.09 СВ 1
{4}
50 км 6/3 600 м
[Sc Ac trans]
-11.4 -1.9 100 -14 -12 1012.2 978.9
03 16.09 штиль 0
{2}
50 км 3/0
[Ac trans]
+15.1 -0.4 35 +15 +18 1011.6 978.8
06 16.09 ЮЗ 1
{4}
50 км 3/3 1000 м
[Sc]
+14.6 +0.6 38 +15 +16 1012.0 979.1
09 16.09 штиль 0
{2}
20 км ясно +0.8 -1.8 83 -0 -0 1015.1 980.4 +15.9
12 16.09 СВ 2
{5}
20 км 4/0
[Ac trans Ci fib]
+4.0 -0.3 74 +1 +1 1015.9 981.7
15 16.09 СВ 4
{7}
20 км 3/0
[Ac trans Ci fib]
+2.0 -1.1 80 -3 -3 1016.6 982.3
18 16.09 СВ 3
{7}
50 км ясно +0.5 -1.8 85 -4 -4 1017.1 982.4
21 16.09 СВ 5
{8}
50 км 3/0
[Ac trans]
+2.9 -1.9 71 -2 -2 1017.4 982.8 -0.4
00 17.09 СВ 3
{8}
50 км 6/0
[Ac lent]
+9.1 +0.6 55 +7 +8 1015.9 982.3
03 17.09 ЮВ 3
{6}
50 км 3/0
[Ac lent Ci fib]
+12.6 +1.7 47 +11 +13 1014.6 981.3
06 17.09 ЮВ 3
{6}
50 км 3/1 1000 м
[Sc Ci fib]
+10.1 +2.1 58 +8 +8 1014.9 981.4
09 17.09 В 2
{5}
20 км ясно +4.5 +1.2 79 +2 +2 1016.1 981.9 +12.8
12 17.09 В 2
{7}
20 км 8/8 1000 м
[Sc]
+6.5 +2.1 73 +4 +4 1015.8 981.8
15 17.09 СВ 2
{6}
20 км 10/10 600 м
[Sc]
+5.4 +1.6 76 +3 +3 1015.3 981.2
18 17.09 СВ 2
{6}
50 км 10/10 600 м
[Sc]
+5.8 +1.3 73 +4 +4 1014.8 980.8
21 17.09 СВ 2
{6}
50 км 10/10 600 м
[Sc]
+6.3 +1.6 72 +4 +4 1014.4 980.4 +3.8
00 18.09
{5}
50 км н/о +8.4 +1.1 60 +7 +7 1013.6 979.9
06 18.09 СВ 4
{8}
50 км 6/6 600 м
[Sc]
+8.2 +0.4 58 +5 +5 1011.8 978.2
09 18.09 СВ 4
{8}
50 км ясно +4.1 -1.7 66 0 0 1013.4 979.3 +12.6
12 18.09 СВ 5
{8}
20 км ясно +2.9 -1.9 71 -2 -2 1013.6 979.2
15 18.09 СВ 5
{10}
20 км ясно +0.4 -4.7 69 -5 -5 1014.8 980.1
18 18.09 СВ 5
{11}
50 км ясно +0.3 -4.4 71 -5 -5 1015.5 980.8
21 18.09 СВ 5
{9}
50 км 9/9 600 м
[Sc]
+1.8 -5.1 60 -3 -3 1015.9 981.3 -0.9
00 19.09 СВ 6
{8}
50 км 8/8 600 м
[Cu med, cong]
+3.3 -5.0 54 -2 -2 1016.0 981.6
03 19.09 СВ 5
{10}
50 км 8/8 600 м
[Sc diur, vesp]
+2.0 -5.6 57 -3 -3 1016.8 982.2
06 19.09 СВ 4
{11}
50 км 6/6 600 м
[Cb cap]
+1.9 -5.4 58 -3 -3 1017.2 982.5
09 19.09 СВ 3
{10}
20 км 8/8 600 м
[Cb cap]
+0.5 -4.5 69 -4 -4 1018.2 983.4 +4.1
12 19.09 С 1
{8}
20 км 10/8 600 м
[Cb cap Ac As]
-0.3 -5.8 66 -2 -2 1018.9 983.9
15 19.09 С 4
{9}
20 км 8/8 600 м
[Cu Sc]
+0.1 -5.0 69 -5 -5 1018.5 983.7
18 19.09 С 4
{8}
50 км 9/9 600 м
[Cb cap]
0.0 -5.6 66 -5 -5 1018.9 983.9
21 19.09 С 1
{8}
50 км 9/6 600 м
[Cb cap Ci fib]
+0.9 -5.5 62 -1 -0 1019.2 984.4 -0.6
00 20.09 СВ 4
{8}
50 км 10/8 600 м
[Cb cap Ac trans Ci fib]
+1.8 -5.1 60 -3 -3 1019.0 984.3
03 20.09 СВ 5
{8}
50 км 9/8 600 м
[Cb cap Ac trans Ci fib]
+2.0 -5.2 59 -3 -3 1018.2 983.5
06 20.09 СВ 3
{8}
50 км 8/6 1000 м
[Sc Ci fib]
+1.4 -6.9 54 -2 -2 1017.7 983.0
09 20.09 СВ 3
{5}
20 км 8/8 600 м
[Sc]
-0.1 -5.3 68 -4 -4 1017.2 982.3 +2.3
12 20.09 С 1
{5}
20 км 6/1 600 м
[Sc Ac trans Ci fib]
-3.1 -6.6 77 -5 -5 1017.1 981.8
15 20.09 штиль 0
{4}
20 км 9/4 600 м
[Sc Ac trans]
-5.2 -6.6 90 -6 -6 1016.5 981.0
18 20.09 штиль 0
{1}
50 км 10/3 600 м
[Sc Cs]
-6.0 -7.1 92 -7 -7 1015.7 980.1
21 20.09 штиль 0
{1}
50 км 10/3 600 м
[Sc Ac und]
-3.8 -5.6 87 -5 -5 1015.0 979.7 -6.2
00 21.09 З 4
{7}
50 км 10/4 600 м
[Sc Ac As]
-1.2 -4.8 76 -7 -6 1013.1 978.5
03 21.09 З 3
{8}
50 км {снег} 10/8 600 м
[Sc Ac und]
-0.8 -4.6 75 -5 -5 1012.1 977.3
06 21.09 З 4
{7}
10 км слаб. ливневой дождь 10/9 600 м
[Cb cap]
-0.1 -4.0 75 -5 -5 1011.0 976.2
09 21.09 З 4
{9}
20 км {ливн. осадки} 10/8 600 м
[Cb cap Ac und]
-1.1 -4.3 79 -7 -7 1010.4 975.6 +0.1 0.0
12 21.09 СЗ 4
{7}
20 км {ливн. осадки} 10/8 600 м
[Cb cap Ac und]
-1.2 -4.1 81 -7 -7 1009.9 975.1
15 21.09 З 2
{9}
20 км 10/8 600 м
[Cb cap Ac und]
-1.5 -4.2 82 -5 -5 1009.2 974.4
18 21.09 З 3
{7}
50 км 10/8 600 м
[Sc Ac und]
-2.0 -4.5 83 -7 -7 1008.8 973.9
21 21.09 З 3
{8}
50 км 10/8 600 м
[Sc Ac und]
-1.7 -5.1 78 -7 -7 1008.3 973.5 -2.1
00 22.09 СЗ 4
{8}
50 км 10/4 600 м
[Cb cap Ac As]
-0.8 -5.7 69 -6 -6 1007.8 973.3
03 22.09 З 3
{8}
2000 м ливневой снег 10/8 600 м
[Cb calv Ac As]
-0.7 -3.8 80 -5 -5 1007.3 972.8
06 22.09 СЗ 4
{7}
50 км {ливн. осадки} 8/4 600 м
[Sc Ac trans Ci fib]
-1.1 -4.7 77 -7 -7 1007.5 972.8
09 22.09 Ю 1
{6}
20 км 4/3 600 м
[Sc Ci fib]
-3.6 -5.4 87 -6 -6 1008.1 973.2 +0.8 0.3
12 22.09 штиль 0
{3}
20 км 6/3 600 м
[Sc Ci fib]
-7.2 -8.1 93 -8 -8 1008.3 972.9
15 22.09 СВ 1
{2}
20 км 8/4 1000 м
[Sc Ac trans Ci fib]
-9.8 -11.0 91 -12 -12 1008.2 972.4
18 22.09 СВ 1
{2}
50 км 9/6 600 м
[Sc Ac cast]
-7.9 -9.3 90 -10 -10 1007.7 972.1
21 22.09 З 2
{3}
50 км {снег} 9/9 600 м
[Sc]
-3.1 -4.5 90 -7 -7 1006.9 972.0 -10.8 0.0

 

Местоположение метеостанции Билибино (Чукотка, Россия): широта 68.05 долгота 166.40 высота над уровнем моря 280 м.

В архиве по умолчанию представлена погода в Билибино за последнюю неделю. Архивные данные за месяц целиком и за предыдущие месяцы, начиная с января 2011 года, Вы можете получить, выбрав интересующий диапазон дат из раскрывающегося списка и нажав кнопку "Ввод!".


*Определитесь, кто Вы:
робот инопланетянин человек

Внимание! Время в таблицах - всемирное. Для получения местного времени необходимо прибавить поправку, которая равна 12 ч.

Смотрите также архив погоды в соседних городах и на ближайших метеорологических станциях:

Погода в Островном (Чукотка, Россия) (96 км)
Погода в Илирнее (Чукотка, Россия) (109 км)
Погода в Раучуе (Чукотка, Россия) (161 км)
Погода в Баимке (Чукотка, Россия) (194 км)
Погода в Чауне (Чукотка, Россия) (198 км)
Погода в Анюйске (Чукотка, Россия) (205 км)
Погода на Айон Острове (Чукотка, Россия) (217 км)
Погода в Константиновской (Чукотка, Россия) (220 км)
Погода в Черском (Якутия, Россия) (222 км)
Погода в Певеке (Чукотка, Россия) (238 км)

Пояснения к столбцам:

Ветер - указаны скорость ветра в м/с - средняя за 10 мин, порывы в срок и между сроками (в фигурных скобках) и направление, откуда дует ветер: С - северный, СВ - северо-восточный, В - восточный, ЮВ - юго-восточный, Ю - южный, ЮЗ - юго-западный, З - западный, СЗ - северо-западный.
Видимость - горизонтальная дальность видимости в метрах или километрах. При видимости от 1 до 10 км при отсутствии осадков обычно наблюдается дымка, при ухудшении видимости до 1 км и менее - туман. В сухую погоду видимость может ухудшаться дымом, пылью или мглою.
Явления - указаны атмосферные явления, наблюдавшиеся в срок или в последний час перед сроком; фигурными скобками обозначены явления, наблюдавшиеся между сроками (за 1-3 часа до срока); квадратными скобками обозначены град или гололедные отложения с указанием их диаметра в мм.
Облачность - указаны через наклонную черту общая и нижняя облачность в баллах и высота нижней границы облаков в метрах; квадратными скобками обозначены формы облаков: Ci - перистые, Cs - перисто-слоистые, Cc - перисто-кучевые, Ac - высококучевые, As - высокослоистые, Sc - слоисто-кучевые, Ns - слоисто-дождевые, Cu - кучевые, Cb - кучево-дождевые. Подробнее классификацию облаков см. в Атласе облаков (PDF).
T - Температура воздуха - температура, измеренная на высоте 2 м над землей.
Td - Температура точки росы - температура, при понижении до которой содержащийся в воздухе водяной пар достигнет насыщения.
f - Относительная влажность воздуха - влажноcть воздуха, измеренная на высоте 2 м над землей.
Te - Эффективная температура - температура, которую ощущает одетый по сезону человек в тени. Характеристика душности погоды. При расчете учитывается влияние влажности воздуха и скорости ветра на теплоощущения человека.
Tes - Эффективная температура на солнце - температура, которую ощущает человек, с поправкой на солнечный нагрев. Характеристика знойности погоды. Зависит от высоты солнца над горизонтом, облачности и скорости ветра. Ночью, в пасмурную погоду, а также при ветре 12 м/с и более поправка равна нулю.
P - Атмосферное давление - приведенное к уровню моря атмосферное давление.
Po - Атмосферное давление - измеренное на уровне метеостанции атмосферное давление.
Tmin - Минимальная температура - минимум температуры воздуха на высоте 2 м над землей.
Tmax - Максимальная температура - максимум температуры воздуха на высоте 2 м над землей.
R - Количество осадков - Количество выпавших осадков за период времени, мм. При наведении курсора мыши на число - период времени, за который выпало указанное количество осадков.
R24 - Количество осадков - Количество выпавших осадков за 24 часа, мм.
S - Снежный покров - Высота снежного покрова, см. При наведении курсора мыши на число - состояние снежного покрова и степень покрытия местности в баллах.